Regional Weather Roundup
Issued by NWS Northern Indiana

Home | Current Version | Previous Version | Graphics & Text | Print | Product List | Glossary On
Versions: 1 2 3 4 5 6 7 8 9 10 11 12 13 14 15 16 17 18 19 20 21 22 23 24 25 26 27 28 29 30 31 32 33 34 35 36 37 38 39 40 41 42 43 44 45 46 47 48 49 50
000
ASUS43 KIWX 050810
RWRIWX

KIWX WEATHER ROUNDUP
NATIONAL WEATHER SERVICE NORTHERN INDIANA
400 AM EDT SAT SEP 05 2015

NOTE: "FAIR" INDICATES FEW OR NO CLOUDS BELOW 12,000 FEET WITH NO
SIGNIFICANT WEATHER AND/OR OBSTRUCTIONS TO VISIBILITY.

* THESE STATIONS ARE NOT UNDER NWS QUALITY CONTROL. THEY ALSO MAY NOT
  REPORT WEATHER SUCH AS PRECIPITATION OR FOG.

INZ001>027-050900-
NORTHERN INDIANA

CITY           SKY/WX    TMP DP  RH WIND       PRES   REMARKS
GARY*          CLEAR     68  65  92 CALM      30.05S FOG
VALPARAISO     CLEAR     67  65  93 CALM      30.07R FOG
MICHIGAN CITY* PTCLDY    68  68 100 CALM      30.06S
LAPORTE*       CLEAR    N/A N/A N/A CALM      30.08R HAZE
KNOX*          FAIR      64  64 100 CALM      30.07R
SOUTH BEND     PTCLDY    69  65  86 S5        30.08R
GOSHEN         PTCLDY    67  64  90 S6        30.08S
MONTICELLO*    CLEAR     66  66  99 E3        30.07R
LOGANSPORT*    CLEAR     63  59  88 E6        30.10R
ROCHESTER*     CLEAR     70  68  94 SE7       30.10R
WARSAW*        PTCLDY    64  63  94 CALM      30.09S
ANGOLA*        MOCLDY    66  55  68 CALM      30.10S
FORT WAYNE     MOCLDY    66  64  93 SE5       30.10S
HUNTINGTON*    CLOUDY    68  63  84 CALM      30.09S
PERU/GRISSOM   PTCLDY    67  65  95 SE5       30.09R
MARION*        MOCLDY    67  60  77 CALM      30.11S

$$
INZ028>050-050900-
CENTRAL INDIANA

CITY           SKY/WX    TMP DP  RH WIND       PRES   REMARKS
LAFAYETTE      CLEAR     65  62  90 CALM      30.07R
KOKOMO*        CLEAR     64 N/A N/A E5        30.10R
MUNCIE*        MOCLDY    63  62  97 N6        30.12R
INDIANAPOLIS   CLEAR     69  64  84 CALM      30.07S

$$
MIZ043>046-050>051-056>058-064>065-071>073-077>080-050900-
SOUTHWEST LOWER MICHIGAN

CITY           SKY/WX    TMP DP  RH WIND       PRES   REMARKS
BATTLE CREEK   PTCLDY    68  67  96 CALM      30.09R
BENTON HARBOR  PTCLDY    66  65  96 CALM      30.06R FOG
COLDWATER*     PTCLDY    67  65  93 CALM      30.09S
HILLSDALE*     PTCLDY    70  69  97 SW5       30.10F
HOLLAND        PTCLDY    66  64  93 CALM      30.07S FOG
GRAND RAPIDS   FOG       65  64  97 CALM      30.07F VSB 1/4
KALAMAZOO      PTCLDY    69  66  90 SW3       30.08S
STURGIS*       PTCLDY    66  64  94 CALM      30.08S
THREE RIVERS*  FAIR      68  67  94 CALM      30.09R

$$
OHZ001>008-015>018-024>025-050900-
NORTHWEST OHIO

CITY           SKY/WX    TMP DP  RH WIND       PRES   REMARKS
WAUSEON*       FAIR      68  68 100 W6        30.09S
DEFIANCE       PTCLDY    69  64  84 CALM      30.09S
FINDLAY        PTCLDY    66  63  90 SW3       30.10R
TOLEDO EXPRESS CLEAR     69  65  86 W7        30.08R
TOLEDO METCALF PTCLDY    68  64  87 S5        30.09R
LIMA           PTCLDY    66  64  93 CALM      30.11R

$$
AND FOR LAKE MICHIGAN COASTAL AND OPEN LAKE BUOY OBSERVATIONS

STATION/POSITION TEMP    WIND        PRES    VSBY  WAVE
                 AIR SEA DIR/SP/G                  HT/PER
                 (F)     (DEG/KT/KT) (MB)    (MI)  (FT/S)
CALUMET HARBOR    71      CALM  /  1   N/A
MICHIGAN CITY     70      80/  4/  5   N/A
BURNS HARBOR      71      CALM  /  2 1017.9F
SAINT JOSEPH      69      CALM  /  2 1019.0R
SOUTH LAKE BUOY   69     130/  2     1017.3F
4 MI NW BRIDGMAN  72 75  170/  6/  6   N/A           1
MICHIGAN CITY     72 74  180/  8/  8   N/A           1

$$
&&



USA.gov is the U.S. government's official web portal to all federal, state and local government web resources and services.